Location: Perryvale
(54.4667°N, 113.3833°W)
Time: 21:04:20
(UTC+00:00)

Transit 2A - Pass Details

Date: 23 May 2024
Orbit: 592 x 959 km, 66.7° (Epoch: 19 June)

Event Time Altitude Azimuth Distance (km) Brightness Sun altitude
Exits shadow 05:56:13 15° 181° (S) 1,765 7.3 -12.2°
Maximum altitude 05:59:40 39° 118° (ESE) 1,061 6.4 -12.4°
Drops below altitude 10° 06:04:29 10° 51° (NE) 2,301 8.7 -12.6°
Sets 06:07:08 0° 44° (NE) 3,298 9.7 -12.8°
